7QULL FWCL-FQBR

Flight info

Callsign 7QULL
Flight time 1h 37m
Altitude 12000
Route VCL DCT VBR
Aircraft C208/L-SABDFGRWY/HB2

Departure

Time 2026-05-07 16:30
Airport Chileka International Airport (FWCL)

Arrival

Time 2026-05-07 18:07
Airport Beira International Airport (FQBR)
Time Latitude Longitude Altitude Speed Heading
2026-05-07 16:19 -15.68080 34.97141 2467 ft 0 kts 97°
2026-05-07 16:25 -15.68079 34.97178 2467 ft 10 kts 87°
2026-05-07 16:25 -15.68073 34.97274 2467 ft 16 kts 85°
2026-05-07 16:25 -15.68075 34.97356 2466 ft 7 kts 97°
2026-05-07 16:26 -15.68082 34.97429 2466 ft 14 kts 96°
2026-05-07 16:26 -15.68062 34.97516 2465 ft 11 kts 19°
2026-05-07 16:26 -15.68003 34.97486 2466 ft 9 kts 326°
2026-05-07 16:26 -15.67979 34.97466 2464 ft 5 kts 319°
2026-05-07 16:27 -15.67926 34.97459 2466 ft 11 kts 40°
2026-05-07 16:27 -15.67922 34.97557 2469 ft 18 kts 100°
2026-05-07 16:27 -15.67937 34.97704 2467 ft 22 kts 96°
2026-05-07 16:27 -15.67950 34.97857 2465 ft 18 kts 94°
2026-05-07 16:28 -15.67962 34.97960 2466 ft 10 kts 60°
2026-05-07 16:28 -15.67966 34.97962 2466 ft 7 kts 284°
2026-05-07 16:28 -15.67959 34.97907 2465 ft 13 kts 274°
2026-05-07 16:28 -15.67931 34.97639 2464 ft 63 kts 276°
2026-05-07 16:29 -15.67869 34.97059 2502 ft 91 kts 278°
2026-05-07 16:29 -15.67802 34.96379 2628 ft 98 kts 276°
2026-05-07 16:29 -15.67726 34.95663 2775 ft 102 kts 274°
2026-05-07 16:29 -15.67635 34.94959 2910 ft 94 kts 283°
2026-05-07 16:30 -15.67482 34.94343 3152 ft 84 kts 278°
2026-05-07 16:30 -15.67559 34.93937 3220 ft 92 kts 247°
2026-05-07 16:30 -15.67842 34.93301 3382 ft 94 kts 238°
2026-05-07 16:30 -15.68137 34.92706 3534 ft 101 kts 254°
2026-05-07 16:31 -15.68185 34.91944 3655 ft 102 kts 266°
2026-05-07 16:31 -15.68459 34.91222 3877 ft 115 kts 226°
2026-05-07 16:31 -15.68933 34.90889 3930 ft 128 kts 196°
2026-05-07 16:31 -15.69808 34.90810 4188 ft 132 kts 179°
2026-05-07 16:32 -15.70751 34.90741 4400 ft 137 kts 182°
2026-05-07 16:32 -15.71716 34.90764 4604 ft 140 kts 173°
2026-05-07 16:32 -15.72696 34.90852 4803 ft 142 kts 174°
2026-05-07 16:32 -15.73348 34.90912 4937 ft 144 kts 173°
2026-05-07 16:33 -15.74350 34.91002 5133 ft 145 kts 173°
2026-05-07 16:33 -15.75700 34.91124 5389 ft 149 kts 173°
2026-05-07 16:33 -15.76738 34.91221 5587 ft 150 kts 173°
2026-05-07 16:33 -15.77426 34.91290 5714 ft 150 kts 173°
2026-05-07 16:34 -15.78469 34.91401 5908 ft 151 kts 173°
2026-05-07 16:34 -15.79516 34.91463 6103 ft 151 kts 178°
2026-05-07 16:34 -15.80563 34.91478 6325 ft 150 kts 180°
2026-05-07 16:34 -15.81603 34.91475 6533 ft 149 kts 180°
2026-05-07 16:35 -15.82639 34.91465 6748 ft 149 kts 180°
2026-05-07 16:35 -15.83677 34.91454 6943 ft 149 kts 180°
2026-05-07 16:35 -15.84713 34.91443 7150 ft 148 kts 180°
2026-05-07 16:35 -15.85746 34.91432 7360 ft 149 kts 181°
2026-05-07 16:36 -15.86776 34.91421 7570 ft 150 kts 181°
2026-05-07 16:36 -15.87834 34.91410 7782 ft 150 kts 181°
2026-05-07 16:36 -15.88869 34.91398 7993 ft 150 kts 181°
2026-05-07 16:36 -15.89927 34.91388 8205 ft 151 kts 181°
2026-05-07 16:37 -15.90966 34.91377 8424 ft 151 kts 181°
2026-05-07 16:37 -15.92016 34.91364 8645 ft 151 kts 181°
2026-05-07 16:37 -15.93069 34.91352 8861 ft 151 kts 181°
2026-05-07 16:37 -15.94119 34.91342 9083 ft 152 kts 181°
2026-05-07 16:38 -15.95178 34.91330 9302 ft 151 kts 181°
2026-05-07 16:38 -15.96234 34.91319 9530 ft 151 kts 181°
2026-05-07 16:38 -15.97274 34.91309 9748 ft 151 kts 181°
2026-05-07 16:38 -15.98320 34.91297 9961 ft 151 kts 182°
2026-05-07 16:39 -15.99365 34.91286 10165 ft 150 kts 181°
2026-05-07 16:39 -16.00407 34.91275 10365 ft 150 kts 181°
2026-05-07 16:39 -16.01460 34.91264 10574 ft 151 kts 181°
2026-05-07 16:39 -16.02512 34.91253 10783 ft 151 kts 181°
2026-05-07 16:40 -16.03546 34.91241 10985 ft 150 kts 181°
2026-05-07 16:40 -16.04596 34.91230 11196 ft 150 kts 182°
2026-05-07 16:40 -16.05646 34.91219 11404 ft 151 kts 182°
2026-05-07 16:40 -16.06697 34.91207 11615 ft 151 kts 182°
2026-05-07 16:41 -16.07737 34.91197 11829 ft 151 kts 182°
2026-05-07 16:41 -16.08812 34.91184 11926 ft 161 kts 182°
2026-05-07 16:41 -16.09972 34.91165 11939 ft 171 kts 182°
2026-05-07 16:41 -16.11186 34.91150 11937 ft 178 kts 182°
2026-05-07 16:42 -16.12435 34.91137 11933 ft 182 kts 182°
2026-05-07 16:42 -16.13713 34.91123 11932 ft 184 kts 182°
2026-05-07 16:42 -16.14988 34.91110 11932 ft 185 kts 182°
2026-05-07 16:42 -16.16281 34.91096 11927 ft 186 kts 182°
2026-05-07 16:43 -16.17569 34.91082 11963 ft 185 kts 182°
2026-05-07 16:43 -16.18857 34.91067 11961 ft 185 kts 182°
2026-05-07 16:43 -16.20126 34.91053 11956 ft 181 kts 182°
2026-05-07 16:43 -16.21385 34.91041 11957 ft 179 kts 182°
2026-05-07 16:44 -16.22632 34.91028 11956 ft 179 kts 182°
2026-05-07 16:44 -16.23884 34.91023 11953 ft 180 kts 181°
2026-05-07 16:44 -16.25122 34.91016 11952 ft 180 kts 182°
2026-05-07 16:44 -16.26390 34.91001 11952 ft 179 kts 182°
2026-05-07 16:45 -16.27626 34.90986 11950 ft 180 kts 182°
2026-05-07 16:45 -16.28882 34.90971 11948 ft 180 kts 182°
2026-05-07 16:45 -16.30139 34.90958 11949 ft 180 kts 182°
2026-05-07 16:45 -16.31388 34.90945 11948 ft 180 kts 182°
2026-05-07 16:46 -16.32646 34.90930 11949 ft 180 kts 182°
2026-05-07 16:46 -16.33905 34.90917 11945 ft 180 kts 182°
2026-05-07 16:46 -16.35158 34.90904 11945 ft 181 kts 182°
2026-05-07 16:46 -16.36404 34.90890 11946 ft 181 kts 182°
2026-05-07 16:47 -16.37680 34.90876 11945 ft 181 kts 182°
2026-05-07 16:47 -16.38923 34.90863 11943 ft 181 kts 182°
2026-05-07 16:47 -16.40184 34.90849 11942 ft 181 kts 182°
2026-05-07 16:47 -16.41447 34.90835 11939 ft 181 kts 182°
2026-05-07 16:48 -16.42707 34.90821 11941 ft 181 kts 182°
2026-05-07 16:48 -16.43969 34.90808 11940 ft 181 kts 182°
2026-05-07 16:48 -16.45218 34.90794 11938 ft 182 kts 182°
2026-05-07 16:48 -16.46485 34.90780 11938 ft 182 kts 182°
2026-05-07 16:49 -16.47753 34.90767 11938 ft 182 kts 182°
2026-05-07 16:49 -16.49023 34.90753 11938 ft 182 kts 182°
2026-05-07 16:49 -16.50289 34.90739 11940 ft 182 kts 182°
2026-05-07 16:49 -16.51559 34.90725 11937 ft 182 kts 182°
2026-05-07 16:50 -16.52825 34.90711 11940 ft 182 kts 182°
2026-05-07 16:50 -16.54101 34.90698 11937 ft 183 kts 182°
2026-05-07 16:50 -16.55370 34.90684 11937 ft 183 kts 182°
2026-05-07 16:50 -16.56650 34.90670 11936 ft 183 kts 182°
2026-05-07 16:51 -16.57911 34.90657 11937 ft 183 kts 182°
2026-05-07 16:51 -16.59184 34.90642 11937 ft 183 kts 182°
2026-05-07 16:51 -16.60462 34.90629 11937 ft 183 kts 182°
2026-05-07 16:51 -16.61739 34.90615 11935 ft 183 kts 182°
2026-05-07 16:52 -16.63015 34.90601 11937 ft 183 kts 182°
2026-05-07 16:52 -16.64289 34.90587 11934 ft 183 kts 182°
2026-05-07 16:52 -16.65569 34.90573 11935 ft 183 kts 182°
2026-05-07 16:52 -16.66842 34.90560 11934 ft 183 kts 182°
2026-05-07 16:53 -16.68118 34.90546 11935 ft 183 kts 182°
2026-05-07 16:53 -16.69394 34.90532 11935 ft 183 kts 182°
2026-05-07 16:53 -16.70668 34.90518 11934 ft 183 kts 182°
2026-05-07 16:53 -16.71927 34.90504 11933 ft 183 kts 182°
2026-05-07 16:54 -16.73199 34.90490 11933 ft 183 kts 182°
2026-05-07 16:54 -16.74474 34.90476 11932 ft 183 kts 182°
2026-05-07 16:54 -16.75750 34.90462 11932 ft 183 kts 182°
2026-05-07 16:54 -16.77020 34.90449 11933 ft 183 kts 182°
2026-05-07 16:55 -16.78292 34.90435 11929 ft 183 kts 182°
2026-05-07 16:55 -16.79563 34.90421 11931 ft 183 kts 182°
2026-05-07 16:55 -16.80837 34.90407 11931 ft 183 kts 182°
2026-05-07 16:55 -16.82104 34.90393 11933 ft 182 kts 182°
2026-05-07 16:56 -16.83376 34.90379 11931 ft 183 kts 182°
2026-05-07 16:56 -16.84646 34.90365 11929 ft 183 kts 182°
2026-05-07 16:56 -16.87175 34.90338 11930 ft 183 kts 182°
2026-05-07 16:57 -16.88444 34.90324 11931 ft 183 kts 182°
2026-05-07 16:57 -16.89722 34.90310 11929 ft 183 kts 182°
2026-05-07 16:57 -16.90993 34.90296 11929 ft 183 kts 182°
2026-05-07 16:57 -16.92264 34.90282 11930 ft 183 kts 182°
2026-05-07 16:58 -16.93539 34.90268 11931 ft 182 kts 182°
2026-05-07 16:58 -16.94808 34.90255 11931 ft 182 kts 182°
2026-05-07 16:58 -16.96075 34.90241 11930 ft 183 kts 182°
2026-05-07 16:58 -16.97345 34.90227 11931 ft 183 kts 182°
2026-05-07 16:59 -16.98622 34.90213 11930 ft 183 kts 182°
2026-05-07 16:59 -16.99900 34.90199 11926 ft 183 kts 183°
2026-05-07 16:59 -17.01157 34.90185 11926 ft 182 kts 183°
2026-05-07 16:59 -17.02423 34.90172 11928 ft 183 kts 183°
2026-05-07 17:00 -17.03697 34.90158 11925 ft 183 kts 183°
2026-05-07 17:00 -17.04969 34.90144 11927 ft 183 kts 183°
2026-05-07 17:00 -17.06241 34.90130 11926 ft 183 kts 183°
2026-05-07 17:00 -17.07511 34.90116 11924 ft 182 kts 183°
2026-05-07 17:01 -17.08778 34.90102 11928 ft 182 kts 183°
2026-05-07 17:01 -17.10022 34.90089 11926 ft 179 kts 183°
2026-05-07 17:01 -17.11267 34.90076 11923 ft 179 kts 183°
2026-05-07 17:01 -17.12510 34.90063 11923 ft 178 kts 183°
2026-05-07 17:02 -17.13747 34.90049 11924 ft 178 kts 183°
2026-05-07 17:02 -17.14990 34.90035 11929 ft 177 kts 183°
2026-05-07 17:02 -17.16227 34.90022 11926 ft 177 kts 183°
2026-05-07 17:02 -17.17459 34.90008 11924 ft 177 kts 183°
2026-05-07 17:03 -17.18698 34.89995 11926 ft 177 kts 183°
2026-05-07 17:03 -17.19921 34.89981 11925 ft 177 kts 183°
2026-05-07 17:03 -17.21156 34.89968 11921 ft 178 kts 183°
2026-05-07 17:03 -17.22390 34.89954 11924 ft 178 kts 183°
2026-05-07 17:04 -17.23628 34.89941 11924 ft 178 kts 183°
2026-05-07 17:04 -17.24868 34.89927 11926 ft 178 kts 183°
2026-05-07 17:04 -17.26103 34.89914 11927 ft 178 kts 183°
2026-05-07 17:04 -17.27341 34.89900 11929 ft 178 kts 183°
2026-05-07 17:05 -17.28582 34.89887 11923 ft 178 kts 183°
2026-05-07 17:05 -17.29801 34.89873 11923 ft 177 kts 183°
2026-05-07 17:05 -17.31037 34.89860 11925 ft 177 kts 183°
2026-05-07 17:05 -17.32272 34.89846 11923 ft 178 kts 183°
2026-05-07 17:06 -17.33510 34.89832 11925 ft 179 kts 183°
2026-05-07 17:06 -17.34754 34.89818 11926 ft 179 kts 183°
2026-05-07 17:06 -17.36003 34.89805 11926 ft 179 kts 183°
2026-05-07 17:06 -17.37250 34.89791 11926 ft 179 kts 183°
2026-05-07 17:07 -17.38500 34.89777 11925 ft 180 kts 183°
2026-05-07 17:07 -17.39750 34.89764 11924 ft 180 kts 183°
2026-05-07 17:07 -17.41002 34.89750 11925 ft 180 kts 183°
2026-05-07 17:07 -17.42256 34.89736 11925 ft 180 kts 183°
2026-05-07 17:08 -17.43502 34.89722 11928 ft 180 kts 183°
2026-05-07 17:08 -17.44749 34.89709 11924 ft 179 kts 183°
2026-05-07 17:08 -17.45986 34.89695 11926 ft 180 kts 184°
2026-05-07 17:08 -17.47229 34.89682 11925 ft 180 kts 184°
2026-05-07 17:09 -17.48485 34.89668 11926 ft 180 kts 184°
2026-05-07 17:09 -17.49743 34.89654 11926 ft 180 kts 184°
2026-05-07 17:09 -17.50994 34.89640 11928 ft 180 kts 184°
2026-05-07 17:09 -17.52243 34.89627 11921 ft 180 kts 184°
2026-05-07 17:10 -17.53497 34.89613 11925 ft 180 kts 184°
2026-05-07 17:10 -17.54748 34.89599 11926 ft 180 kts 184°
2026-05-07 17:10 -17.56001 34.89585 11926 ft 180 kts 184°
2026-05-07 17:10 -17.57251 34.89572 11927 ft 180 kts 184°
2026-05-07 17:11 -17.58502 34.89558 11922 ft 179 kts 184°
2026-05-07 17:11 -17.59737 34.89544 11923 ft 179 kts 184°
2026-05-07 17:11 -17.60987 34.89530 11923 ft 179 kts 184°
2026-05-07 17:11 -17.62234 34.89517 11923 ft 179 kts 184°
2026-05-07 17:12 -17.63487 34.89503 11923 ft 179 kts 184°
2026-05-07 17:12 -17.64734 34.89489 11924 ft 179 kts 184°
2026-05-07 17:12 -17.65984 34.89476 11921 ft 179 kts 184°
2026-05-07 17:12 -17.67228 34.89462 11922 ft 179 kts 184°
2026-05-07 17:13 -17.68462 34.89448 11921 ft 179 kts 184°
2026-05-07 17:13 -17.69709 34.89435 11921 ft 179 kts 184°
2026-05-07 17:13 -17.70955 34.89421 11918 ft 179 kts 184°
2026-05-07 17:13 -17.72201 34.89407 11920 ft 179 kts 184°
2026-05-07 17:14 -17.73448 34.89393 11921 ft 179 kts 184°
2026-05-07 17:14 -17.74694 34.89380 11923 ft 179 kts 184°
2026-05-07 17:14 -17.75939 34.89366 11919 ft 179 kts 184°
2026-05-07 17:14 -17.77186 34.89352 11918 ft 179 kts 184°
2026-05-07 17:15 -17.78433 34.89339 11919 ft 179 kts 184°
2026-05-07 17:15 -17.79676 34.89325 11915 ft 178 kts 184°
2026-05-07 17:15 -17.80914 34.89311 11914 ft 178 kts 184°
2026-05-07 17:15 -17.82150 34.89298 11914 ft 177 kts 184°
2026-05-07 17:16 -17.83371 34.89285 11915 ft 177 kts 184°
2026-05-07 17:16 -17.84598 34.89271 11913 ft 176 kts 184°
2026-05-07 17:16 -17.85826 34.89258 11912 ft 176 kts 184°
2026-05-07 17:16 -17.87054 34.89244 11913 ft 176 kts 184°
2026-05-07 17:17 -17.88277 34.89231 11909 ft 176 kts 184°
2026-05-07 17:17 -17.89508 34.89217 11910 ft 176 kts 184°
2026-05-07 17:17 -17.90721 34.89204 11909 ft 176 kts 184°
2026-05-07 17:17 -17.91948 34.89190 11911 ft 176 kts 184°
2026-05-07 17:18 -17.93171 34.89177 11911 ft 176 kts 184°
2026-05-07 17:18 -17.94396 34.89163 11912 ft 176 kts 184°
2026-05-07 17:18 -17.95620 34.89150 11913 ft 176 kts 184°
2026-05-07 17:18 -17.96429 34.89141 11912 ft 176 kts 184°
2026-05-07 17:19 -17.98069 34.89123 11912 ft 176 kts 184°
2026-05-07 17:19 -17.98880 34.89114 11911 ft 176 kts 184°
2026-05-07 17:19 -18.00101 34.89100 11910 ft 176 kts 184°
2026-05-07 17:19 -18.01324 34.89087 11909 ft 176 kts 184°
2026-05-07 17:20 -18.02547 34.89073 11910 ft 176 kts 184°
2026-05-07 17:20 -18.03769 34.89060 11914 ft 176 kts 184°
2026-05-07 17:20 -18.04992 34.89047 11914 ft 176 kts 184°
2026-05-07 17:20 -18.06214 34.89033 11914 ft 176 kts 184°
2026-05-07 17:21 -18.07426 34.89019 11914 ft 175 kts 184°
2026-05-07 17:21 -18.08646 34.89006 11917 ft 175 kts 184°
2026-05-07 17:21 -18.09869 34.88992 11916 ft 175 kts 184°
2026-05-07 17:21 -18.11091 34.88979 11915 ft 176 kts 184°
2026-05-07 17:22 -18.12312 34.88965 11916 ft 175 kts 184°
2026-05-07 17:22 -18.13537 34.88952 11915 ft 175 kts 184°
2026-05-07 17:22 -18.14760 34.88938 11917 ft 176 kts 184°
2026-05-07 17:22 -18.15965 34.88925 11918 ft 176 kts 184°
2026-05-07 17:23 -18.17193 34.88911 11916 ft 176 kts 184°
2026-05-07 17:23 -18.18412 34.88898 11921 ft 176 kts 184°
2026-05-07 17:23 -18.19640 34.88884 11919 ft 175 kts 184°
2026-05-07 17:23 -18.20859 34.88871 11920 ft 175 kts 184°
2026-05-07 17:24 -18.22082 34.88857 11919 ft 175 kts 184°
2026-05-07 17:24 -18.23299 34.88844 11922 ft 175 kts 184°
2026-05-07 17:24 -18.24523 34.88830 11920 ft 175 kts 184°
2026-05-07 17:24 -18.25732 34.88817 11924 ft 175 kts 185°
2026-05-07 17:25 -18.26947 34.88803 11922 ft 175 kts 185°
2026-05-07 17:25 -18.28166 34.88790 11925 ft 175 kts 185°
2026-05-07 17:25 -18.29385 34.88777 11925 ft 175 kts 185°
2026-05-07 17:25 -18.30599 34.88763 11924 ft 175 kts 185°
2026-05-07 17:26 -18.31813 34.88750 11926 ft 175 kts 185°
2026-05-07 17:26 -18.33017 34.88736 11927 ft 175 kts 185°
2026-05-07 17:26 -18.34233 34.88723 11926 ft 175 kts 185°
2026-05-07 17:26 -18.35449 34.88709 11927 ft 175 kts 185°
2026-05-07 17:27 -18.36666 34.88696 11928 ft 174 kts 185°
2026-05-07 17:27 -18.37880 34.88682 11930 ft 174 kts 185°
2026-05-07 17:27 -18.39091 34.88669 11931 ft 174 kts 185°
2026-05-07 17:27 -18.40304 34.88656 11929 ft 174 kts 185°
2026-05-07 17:28 -18.41515 34.88642 11930 ft 174 kts 185°
2026-05-07 17:28 -18.42723 34.88629 11928 ft 174 kts 185°
2026-05-07 17:28 -18.43942 34.88615 11927 ft 174 kts 185°
2026-05-07 17:28 -18.45138 34.88602 11926 ft 174 kts 185°
2026-05-07 17:29 -18.46359 34.88589 11929 ft 174 kts 185°
2026-05-07 17:29 -18.47552 34.88575 11928 ft 174 kts 185°
2026-05-07 17:29 -18.48757 34.88562 11929 ft 173 kts 185°
2026-05-07 17:29 -18.49963 34.88549 11930 ft 173 kts 185°
2026-05-07 17:30 -18.51175 34.88535 11928 ft 173 kts 185°
2026-05-07 17:30 -18.52382 34.88521 11932 ft 173 kts 185°
2026-05-07 17:30 -18.53587 34.88508 11932 ft 173 kts 185°
2026-05-07 17:30 -18.54796 34.88494 11934 ft 174 kts 185°
2026-05-07 17:31 -18.56004 34.88481 11933 ft 174 kts 185°
2026-05-07 17:31 -18.57196 34.88468 11935 ft 173 kts 185°
2026-05-07 17:31 -18.58418 34.88454 11936 ft 173 kts 185°
2026-05-07 17:31 -18.59610 34.88441 11935 ft 173 kts 185°
2026-05-07 17:32 -18.60812 34.88428 11934 ft 173 kts 185°
2026-05-07 17:32 -18.62018 34.88415 11936 ft 173 kts 185°
2026-05-07 17:32 -18.63220 34.88401 11938 ft 173 kts 185°
2026-05-07 17:32 -18.64424 34.88387 11938 ft 173 kts 185°
2026-05-07 17:33 -18.65620 34.88375 11938 ft 172 kts 185°
2026-05-07 17:33 -18.66824 34.88361 11940 ft 172 kts 185°
2026-05-07 17:33 -18.68026 34.88348 11939 ft 172 kts 185°
2026-05-07 17:33 -18.69225 34.88334 11937 ft 172 kts 185°
2026-05-07 17:34 -18.70409 34.88321 11938 ft 172 kts 185°
2026-05-07 17:34 -18.71605 34.88308 11935 ft 172 kts 185°
2026-05-07 17:34 -18.72798 34.88295 11936 ft 171 kts 185°
2026-05-07 17:34 -18.73992 34.88281 11934 ft 171 kts 185°
2026-05-07 17:35 -18.75185 34.88268 11937 ft 171 kts 185°
2026-05-07 17:35 -18.76376 34.88255 11937 ft 171 kts 185°
2026-05-07 17:35 -18.77568 34.88241 11938 ft 171 kts 186°
2026-05-07 17:35 -18.78761 34.88228 11938 ft 171 kts 185°
2026-05-07 17:36 -18.79954 34.88215 11937 ft 169 kts 185°
2026-05-07 17:36 -18.81116 34.88204 11940 ft 165 kts 186°
2026-05-07 17:36 -18.82248 34.88192 11945 ft 163 kts 186°
2026-05-07 17:36 -18.83383 34.88179 11939 ft 162 kts 186°
2026-05-07 17:37 -18.84511 34.88167 11940 ft 162 kts 186°
2026-05-07 17:37 -18.85638 34.88154 11942 ft 161 kts 186°
2026-05-07 17:37 -18.86758 34.88141 11939 ft 162 kts 186°
2026-05-07 17:37 -18.87884 34.88128 11941 ft 162 kts 186°
2026-05-07 17:38 -18.89009 34.88116 11942 ft 162 kts 186°
2026-05-07 17:38 -18.89754 34.88108 11943 ft 161 kts 186°
2026-05-07 17:38 -18.90876 34.88095 11941 ft 161 kts 186°
2026-05-07 17:38 -18.91982 34.88083 11941 ft 160 kts 186°
2026-05-07 17:39 -18.93097 34.88071 11944 ft 160 kts 186°
2026-05-07 17:39 -18.94215 34.88058 11888 ft 163 kts 186°
2026-05-07 17:39 -18.95367 34.88049 11824 ft 166 kts 182°
2026-05-07 17:39 -18.96512 34.88340 11752 ft 172 kts 165°
2026-05-07 17:40 -18.97638 34.88752 11689 ft 174 kts 166°
2026-05-07 17:40 -18.98812 34.89133 11622 ft 175 kts 167°
2026-05-07 17:40 -18.99972 34.89499 11556 ft 177 kts 168°
2026-05-07 17:40 -19.01158 34.89872 11489 ft 179 kts 167°
2026-05-07 17:41 -19.02356 34.90251 11421 ft 180 kts 167°
2026-05-07 17:41 -19.03561 34.90632 11355 ft 180 kts 167°
2026-05-07 17:41 -19.04763 34.91013 11287 ft 181 kts 167°
2026-05-07 17:41 -19.05971 34.91395 11215 ft 181 kts 167°
2026-05-07 17:42 -19.07176 34.91777 11146 ft 180 kts 167°
2026-05-07 17:42 -19.08380 34.92157 11072 ft 180 kts 167°
2026-05-07 17:42 -19.09582 34.92538 11000 ft 180 kts 167°
2026-05-07 17:42 -19.10771 34.92914 10930 ft 180 kts 167°
2026-05-07 17:43 -19.11986 34.93299 10860 ft 180 kts 167°
2026-05-07 17:43 -19.13170 34.93674 10793 ft 180 kts 167°
2026-05-07 17:43 -19.14370 34.94054 10715 ft 180 kts 167°
2026-05-07 17:43 -19.15567 34.94433 10623 ft 180 kts 167°
2026-05-07 17:44 -19.16774 34.94815 10524 ft 181 kts 167°
2026-05-07 17:44 -19.17983 34.95198 10438 ft 181 kts 167°
2026-05-07 17:44 -19.19185 34.95579 10347 ft 181 kts 167°
2026-05-07 17:44 -19.20396 34.95963 10253 ft 181 kts 167°
2026-05-07 17:45 -19.21599 34.96344 10163 ft 180 kts 167°
2026-05-07 17:45 -19.22794 34.96724 10073 ft 178 kts 167°
2026-05-07 17:45 -19.23975 34.97098 9982 ft 176 kts 167°
2026-05-07 17:45 -19.24711 34.97331 9921 ft 175 kts 167°
2026-05-07 17:46 -19.25878 34.97702 9823 ft 175 kts 167°
2026-05-07 17:46 -19.27041 34.98070 9723 ft 174 kts 167°
2026-05-07 17:46 -19.28204 34.98439 9620 ft 174 kts 167°
2026-05-07 17:46 -19.29369 34.98809 9521 ft 174 kts 167°
2026-05-07 17:47 -19.29700 34.98914 9491 ft 174 kts 167°
2026-05-07 17:47 -19.30052 34.99025 9473 ft 167 kts 167°
2026-05-07 17:47 -19.31056 34.99354 9389 ft 141 kts 167°
2026-05-07 17:47 -19.31973 34.99645 9291 ft 138 kts 167°
2026-05-07 17:48 -19.32890 34.99935 9193 ft 137 kts 167°
2026-05-07 17:48 -19.33803 35.00223 9089 ft 137 kts 167°
2026-05-07 17:48 -19.34711 35.00512 8989 ft 136 kts 167°
2026-05-07 17:48 -19.35625 35.00801 8883 ft 136 kts 167°
2026-05-07 17:49 -19.36535 35.01090 8791 ft 136 kts 167°
2026-05-07 17:49 -19.37444 35.01378 8692 ft 136 kts 167°
2026-05-07 17:49 -19.38352 35.01668 8599 ft 136 kts 167°
2026-05-07 17:49 -19.39259 35.01956 8482 ft 137 kts 167°
2026-05-07 17:50 -19.40174 35.02248 8392 ft 136 kts 166°
2026-05-07 17:50 -19.41076 35.02538 8301 ft 135 kts 167°
2026-05-07 17:50 -19.41981 35.02824 8205 ft 136 kts 167°
2026-05-07 17:50 -19.42885 35.03109 8109 ft 137 kts 166°
2026-05-07 17:51 -19.43809 35.03402 8012 ft 140 kts 166°
2026-05-07 17:51 -19.44753 35.03701 7900 ft 143 kts 166°
2026-05-07 17:51 -19.45708 35.04005 7784 ft 143 kts 166°
2026-05-07 17:51 -19.46665 35.04310 7664 ft 144 kts 166°
2026-05-07 17:52 -19.47622 35.04614 7550 ft 144 kts 166°
2026-05-07 17:52 -19.48576 35.04919 7428 ft 144 kts 165°
2026-05-07 17:52 -19.49539 35.05225 7307 ft 143 kts 166°
2026-05-07 17:52 -19.50494 35.05523 7187 ft 145 kts 166°
2026-05-07 17:53 -19.51550 35.05850 7036 ft 166 kts 166°
2026-05-07 17:53 -19.52289 35.06083 6956 ft 171 kts 165°
2026-05-07 17:53 -19.53442 35.06449 6822 ft 175 kts 165°
2026-05-07 17:53 -19.54600 35.06820 6681 ft 171 kts 165°
2026-05-07 17:54 -19.55729 35.07181 6534 ft 169 kts 165°
2026-05-07 17:54 -19.56833 35.07533 6372 ft 166 kts 165°
2026-05-07 17:54 -19.57934 35.07883 6192 ft 163 kts 165°
2026-05-07 17:54 -19.59015 35.08228 6015 ft 162 kts 164°
2026-05-07 17:55 -19.60098 35.08573 5844 ft 162 kts 164°
2026-05-07 17:55 -19.61168 35.08914 5673 ft 162 kts 164°
2026-05-07 17:55 -19.62253 35.09259 5502 ft 161 kts 164°
2026-05-07 17:55 -19.63322 35.09600 5332 ft 160 kts 164°
2026-05-07 17:56 -19.64387 35.09940 5164 ft 160 kts 163°
2026-05-07 17:56 -19.65454 35.10280 4994 ft 160 kts 163°
2026-05-07 17:56 -19.66532 35.10623 4827 ft 161 kts 163°
2026-05-07 17:56 -19.67216 35.10842 4717 ft 161 kts 163°
2026-05-07 17:57 -19.68289 35.11184 4549 ft 160 kts 163°
2026-05-07 17:57 -19.68995 35.11409 4436 ft 159 kts 163°
2026-05-07 17:57 -19.70373 35.11848 4202 ft 151 kts 163°
2026-05-07 17:57 -19.71374 35.12169 4025 ft 150 kts 163°
2026-05-07 17:58 -19.72356 35.12483 3842 ft 149 kts 163°
2026-05-07 17:58 -19.73351 35.12801 3683 ft 149 kts 163°
2026-05-07 17:58 -19.74345 35.13118 3515 ft 149 kts 163°
2026-05-07 17:58 -19.75359 35.13239 3348 ft 148 kts 191°
2026-05-07 17:59 -19.76347 35.12948 3183 ft 147 kts 195°
2026-05-07 17:59 -19.77336 35.12680 3020 ft 146 kts 194°
2026-05-07 17:59 -19.78314 35.12414 2876 ft 144 kts 195°
2026-05-07 17:59 -19.79278 35.12148 2732 ft 142 kts 195°
2026-05-07 18:00 -19.80220 35.11889 2589 ft 141 kts 194°
2026-05-07 18:00 -19.81167 35.11627 2440 ft 140 kts 194°
2026-05-07 18:00 -19.82123 35.11363 2304 ft 139 kts 195°
2026-05-07 18:00 -19.83040 35.11109 2182 ft 138 kts 196°
2026-05-07 18:01 -19.83847 35.10584 2057 ft 141 kts 227°
2026-05-07 18:01 -19.84266 35.09644 1935 ft 144 kts 259°
2026-05-07 18:01 -19.84152 35.08584 1810 ft 146 kts 284°
2026-05-07 18:01 -19.83882 35.07577 1788 ft 136 kts 282°
2026-05-07 18:02 -19.83417 35.05708 1773 ft 130 kts 282°
2026-05-07 18:02 -19.83185 35.04783 1767 ft 129 kts 282°
2026-05-07 18:02 -19.82953 35.03867 1769 ft 128 kts 282°
2026-05-07 18:03 -19.82723 35.02954 1769 ft 127 kts 282°
2026-05-07 18:03 -19.82494 35.02041 1766 ft 129 kts 282°
2026-05-07 18:03 -19.82260 35.01118 1766 ft 129 kts 282°
2026-05-07 18:03 -19.82027 35.00189 1737 ft 131 kts 282°
2026-05-07 18:04 -19.81784 34.99246 1587 ft 129 kts 282°
2026-05-07 18:04 -19.81633 34.98675 1484 ft 114 kts 282°
2026-05-07 18:04 -19.81380 34.97660 1244 ft 103 kts 282°
2026-05-07 18:04 -19.81200 34.96942 1058 ft 99 kts 282°
2026-05-07 18:05 -19.81024 34.96241 887 ft 97 kts 283°
2026-05-07 18:05 -19.80838 34.95563 771 ft 92 kts 284°
2026-05-07 18:05 -19.80715 34.95137 693 ft 91 kts 284°
2026-05-07 18:05 -19.80533 34.94400 557 ft 91 kts 281°
2026-05-07 18:06 -19.80435 34.93972 476 ft 88 kts 282°
2026-05-07 18:06 -19.80283 34.93353 379 ft 88 kts 284°
2026-05-07 18:06 -19.80136 34.92722 245 ft 86 kts 283°
2026-05-07 18:06 -19.79988 34.92127 121 ft 81 kts 283°
2026-05-07 18:07 -19.79848 34.91576 48 ft 71 kts 285°
2026-05-07 18:07 -19.79737 34.91140 44 ft 44 kts 284°
2026-05-07 18:07 -19.79684 34.90927 44 ft 24 kts 284°
2026-05-07 18:07 -19.79630 34.90709 41 ft 36 kts 284°
2026-05-07 18:08 -19.79564 34.90445 41 ft 22 kts 283°
2026-05-07 18:08 -19.79560 34.90445 41 ft 14 kts 128°
2026-05-07 18:08 -19.79683 34.90446 42 ft 21 kts 198°
2026-05-07 18:08 -19.79725 34.90398 42 ft 0 kts 260°
2026-05-07 18:09 -19.79716 34.90355 42 ft 13 kts 284°
2026-05-07 18:09 -19.79683 34.90227 42 ft 17 kts 283°
2026-05-07 18:09 -19.79666 34.90147 42 ft 5 kts 234°
2026-05-07 18:09 -19.79705 34.90139 42 ft 5 kts 189°
2026-05-07 18:10 -19.79763 34.90115 42 ft 14 kts 252°
2026-05-07 18:10 -19.79773 34.90048 42 ft 7 kts 134°
2026-05-07 18:10 -19.79780 34.90072 42 ft 0 kts 104°